Location: Caribou
(46.8667°N, 68.0167°W)
Time: 06:52:24
(UTC-04:00)

Daily predictions for brighter satellites

Satellite Brightness Start Highest point End
(mag) Time Altitude Azimuth Time Altitude Azimuth Time Altitude Azimuth
NOSS 3-2 (C) 3.5 20:41:28 10° SSW 20:47:28 69° ESE 20:54:06 10° NE
Cosmos 2369 Rocket 2.6 20:43:07 10° S 20:48:21 40° ESE 20:53:39 10° NE
Lacrosse 5 rocket 2.1 20:50:12 10° S 20:53:03 22° SE 20:55:56 10° ENE
Cosmos 1346 Rocket 3.1 20:50:10 10° NNW 20:54:08 72° W 20:58:05 10° S
Cosmos 1703 Rocket 3.6 20:51:05 10° N 20:55:33 75° E 20:59:55 10° SSE
Cosmos 1939 Rocket 3.8 20:53:35 10° S 20:57:38 52° W 21:01:41 10° NNW
Cosmos 1606 3.3 20:54:56 10° N 20:58:30 38° ENE 21:02:02 10° SE
Envisat 4.1 20:54:49 10° S 20:59:39 44° W 21:04:32 10° NNW
Cosmos 1898 Rocket 4.5 20:58:03 10° SW 21:03:14 54° WNW 21:08:29 10° NNE
CENTAUR R/B 3.1 21:00:27 10° S 21:05:53 36° ESE 21:11:57 10° NE
Cosmos 990 Rocket 4.2 21:00:58 10° SSW 21:06:11 77° WNW 21:11:27 10° NNE
ISS -3.2 21:07:41 10° SSW 21:10:39 33° SE 21:13:38 10° ENE
ATLAS 5 CENTAUR R/B 2.6 21:06:07 10° NW 21:11:56 63° NE 21:17:56 12° SE
SAR-Lupe-4 3.9 21:08:38 10° S 21:12:12 68° WSW 21:15:47 10° NNW
Cosmos 1125 Rocket 3.9 21:08:31 10° S 21:13:26 42° ESE 21:18:20 10° NE
Meteor 2-6 Rocket 4.5 21:08:25 10° N 21:14:20 66° ENE 21:20:16 10° SSE
Terra 3.4 21:11:04 10° ESE 21:14:37 21° ENE 21:18:10 10° NNE
Cosmos 1869 Rocket 3.5 21:13:03 10° S 21:17:22 76° E 21:21:45 10° NNE
YAOGAN 6 3.9 21:14:55 10° SSW 21:18:25 39° W 21:21:55 10° NNW
MetOp-B 4.1 21:15:45 10° SSE 21:21:06 84° ENE 21:26:29 10° NNW
Tiangong 2 3.2 21:21:39 10° WSW 21:23:45 16° SSW 21:25:25 12° S
SPOT 5 3.2 21:19:29 11° SSE 21:24:39 66° ENE 21:29:55 10° N
Cosmos 2221 Rocket 3.7 21:21:02 10° NNW 21:25:29 77° W 21:29:55 10° S
Aureole 3 2.5 21:23:39 10° S 21:26:41 85° E 21:29:42 10° N
Cosmos 2084 4.1 21:25:39 10° NW 21:29:16 42° SW 21:32:31 13° SSE
Meteor 2-3 Rocket 4.5 21:23:46 10° SSW 21:29:23 56° WNW 21:34:58 10° N
Helios 1B rocket 3.4 21:25:48 10° N 21:29:48 49° WNW 21:33:45 10° SW
GPS 2-04 Rocket1 4.4 21:28:07 10° SW 21:30:02 14° S 21:30:49 13° S
ARGOS 3.1 21:24:50 10° SSE 21:30:13 84° ENE 21:35:36 10° NNW
Cosmos 1782 2.9 21:26:16 10° N 21:30:18 80° W 21:34:14 10° S
H-2A R/B 2.2 21:32:36 14° SSE 21:37:15 66° ENE 21:42:33 10° N
Lacrosse 4 Rocket 1.6 21:36:47 10° NNW 21:41:19 75° ENE 21:44:24 20° SE
Cosmos 2344 3.8 21:36:49 10° S 21:44:03 48° ESE 21:52:06 10° NE
CARTOSAT-1 4.5 21:42:10 18° ESE 21:44:46 35° ENE 21:48:43 10° N
Cosmos 1674 Rocket 4.1 21:41:10 10° N 21:45:18 41° ENE 21:47:47 21° SE
Cosmos 1408 2.8 21:42:47 10° SSW 21:46:30 75° W 21:50:16 10° N
Nadezhda 4 Rocket 4.2 21:43:21 13° SSE 21:48:40 52° E 21:54:38 10° NNE
Cosmos 1825 2.3 21:46:22 10° SSW 21:50:08 74° W 21:53:56 10° N
Cosmos 158 Rocket 4.1 21:46:49 10° NNW 21:51:41 64° WSW 21:55:29 16° S
Cosmos 1862 3.3 21:48:46 16° S 21:51:53 65° E 21:55:50 10° NNE
Cosmos 2227 Rocket 4.2 21:48:59 10° N 21:52:48 18° NE 21:56:38 10° E
YAOGAN 11 4.4 21:52:45 15° S 21:56:28 68° WSW 22:00:59 10° NNW
Cosmos 2219 4.0 21:52:25 10° NNW 21:57:52 41° NE 22:01:41 18° ESE
Gbstr 26 Del rocket 4.0 21:57:18 10° WNW 22:01:51 45° N 22:05:43 10° E
H-2A R/B 3.0 22:00:01 21° ESE 22:01:55 32° ENE 22:05:36 10° N
Molniya-1 4.0 22:02:55 19° W 22:03:42 30° NW 22:05:10 10° NNE
COSMOS 2455 3.6 22:03:27 10° SW 22:09:21 55° NW 22:15:17 10° NNE
Cosmos 1812 4.1 22:06:32 10° NNE 22:09:49 25° ENE 22:10:59 22° E
Cosmos 1943 Rocket 2.3 22:08:43 10° SSW 22:14:19 78° WNW 22:19:54 10° NNE
Okean 3 3.7 22:13:14 10° N 22:17:21 54° ENE 22:19:00 32° SE
DMSP B5D2-2 4.0 22:16:05 10° NNE 22:21:19 78° ESE 22:25:06 19° S
Cosmos 1908 Rocket 3.9 22:21:26 32° SSE 22:23:06 48° E 22:27:23 10° NNE
Cosmos 1340 4.3 22:20:01 10° NNW 22:23:21 29° W 22:25:59 14° SSW
USA 215 4.1 22:19:36 19° S 22:23:39 36° SW 22:29:38 10° WNW
IGS 5A 3.4 22:21:57 33° SSE 22:23:47 81° ENE 22:27:57 10° N
Milstar 3 4.2 22:20:54 10° SW 22:27:03 19° S 22:27:31 19° S
Okean 2 Rocket 4.4 22:28:08 23° E 22:28:47 23° E 22:32:19 10° NE
Cosmos 405 Rocket 3.6 22:26:33 10° N 22:29:57 33° ENE 22:30:40 30° E
Cosmos 2251 Rocket 3.5 22:26:00 10° NNW 22:31:16 78° ENE 22:33:44 32° SSE
Lacrosse 5 rocket 1.8 22:28:26 10° WSW 22:31:58 52° NNW 22:35:37 10° NE
Cosmos 2369 Rocket 3.7 22:27:11 10° WSW 22:32:25 37° NW 22:37:44 10° NNE
Landsat 7 4.4 22:34:10 24° SSW 22:36:52 53° W 22:41:32 10° NNW
deb Chang Zheng 4 3.9 22:34:57 10° NNE 22:39:15 47° E 22:40:20 39° SE
GEOS 3 Rocket 3.9 22:38:07 30° S 22:40:29 56° SW 22:45:40 10° NW
PSLV R/B 3.4 22:40:49 49° NE 22:40:49 49° NE 22:43:20 10° N
DNEPR-1 R/B 4.5 22:36:01 10° SW 22:40:52 52° NW 22:45:10 10° NNE
Cosmos 1655 Rocket 4.3 22:44:22 31° SE 22:46:58 49° E 22:52:56 10° NNE
ISS -3.1 22:43:51 10° W 22:47:03 53° NNW 22:50:15 10° ENE
Cosmos 2297 Rocket 3.5 22:43:07 10° NNW 22:48:12 32° NE 22:51:27 18° E
BREEZE-M DEB (TANK) 3.9 22:47:17 33° SSE 22:48:40 38° SE 23:00:52 10° ENE
Cosmos 1733 Rocket 4.2 22:45:52 14° SW 22:49:14 40° WNW 22:53:21 10° N
Cosmos 1782 Rocket 3.7 22:49:18 44° SE 22:50:17 54° E 22:54:35 10° NNE
ARGOS Delta rocket 3.9 22:46:49 10° NNE 22:51:15 50° E 22:52:08 43° SE
Terra 2.3 22:49:48 29° SSW 22:52:00 53° W 22:56:41 10° NNW
Sich 1 Rocket 3.5 22:50:27 39° S 22:52:07 88° E 22:56:34 10° N
CENTAUR R/B 3.3 22:50:07 10° WSW 22:56:13 56° NW 23:03:16 10° NE
ATLAS 5 CENTAUR R/B 3.6 22:51:13 10° WNW 22:56:28 31° WSW 22:59:28 21° SSW
Cosmos 1437 3.8 22:53:58 10° NNW 22:56:57 36° W 22:57:24 34° WSW
Cosmos 1441 Rocket 3.7 22:53:33 10° N 22:57:17 44° ENE 22:57:45 42° E
CZ-4C R/B 4.3 22:52:46 10° NNW 22:58:32 29° NNE 23:04:58 10° E
Cosmos 1346 4.4 22:58:45 10° NNW 23:00:58 29° W 23:00:58 29° W
Cosmos 2026 Rocket 3.9 23:04:33 32° S 23:07:38 87° E 23:13:57 10° N
Cosmos 1975 Rocket 3.0 23:05:13 10° N 23:09:42 84° W 23:10:46 52° S
Cosmos 1867 4.1 23:06:05 10° NW 23:11:18 48° WSW 23:12:56 36° SSW
Cosmos 2082 4.4 23:06:39 10° NNW 23:12:10 46° NE 23:14:45 29° ESE
ALOS 2 3.7 23:11:51 29° E 23:12:53 33° ENE 23:16:49 10° N
Meteor 1-20 Rocket 4.2 23:12:31 39° S 23:14:46 77° E 23:20:28 10° NNE
Cosmos 1656 Rocket 4.2 23:10:03 12° SW 23:15:06 58° WNW 23:20:35 10° NNE
H-2A R/B 4.2 23:13:18 10° SW 23:17:07 19° W 23:20:54 10° NW
Meteor 1-25 Rocket 4.2 23:15:22 36° S 23:17:51 89° E 23:23:45 10° NNE
Cosmos 1417 Rocket 4.5 23:12:02 10° N 23:18:19 87° W 23:20:55 38° S
Lacrosse 4 Rocket 3.8 23:17:06 10° WNW 23:19:25 14° WSW 23:20:44 13° WSW
CZ-2C R/B 3.2 23:19:37 41° SE 23:21:06 57° ENE 23:25:57 10° N
CZ-4 R/B 4.0 23:17:29 10° N 23:22:07 67° WNW 23:23:54 36° SW
Spot 4 4.3 23:22:13 38° SSW 23:23:40 52° W 23:28:24 10° NNW
Cosmos 2151 Rocket 4.1 23:23:57 42° ESE 23:24:12 43° E 23:28:25 10° NNE
S3M 3.9 23:18:51 10° N 23:25:01 83° E 23:27:16 42° SSE
Cosmos 1428 Rocket 4.4 23:23:31 37° S 23:26:12 86° E 23:32:34 10° N
Meteor 2-11 Rocket 4.4 23:22:53 10° NNW 23:29:03 77° W 23:31:23 40° S
ATLAS CENTAUR R/B 1.1 23:33:00 77° WSW 23:33:15 86° NW 23:37:06 10° NE
Cosmos 1536 Rocket 3.7 23:28:57 10° N 23:33:18 56° ENE 23:33:48 52° ESE
Cosmos 2227 Rocket 2.1 23:32:07 10° NNW 23:37:48 81° ENE 23:39:30 47° SE
H-2A R/B 3.5 23:37:08 23° WSW 23:37:59 25° W 23:41:24 10° NW
CZ-2C R/B 2.7 23:35:41 10° NNE 23:40:49 60° E 23:41:46 51° SE
Cosmos 1300 Rocket 4.4 23:41:02 36° E 23:41:02 36° E 23:45:01 10° NNE
Cosmos 2219 4.1 23:36:44 10° NW 23:41:58 36° WSW 23:43:36 30° SW
GP-B 4.0 23:38:33 10° NNE 23:42:38 34° E 23:42:55 34° E
Cosmos 1553 Rocket 4.1 23:37:38 10° NNW 23:43:59 68° W 23:46:20 40° SSW
CZ-4B R/B 3.9 23:39:16 10° N 23:44:10 57° WNW 23:46:05 34° SW
Cosmos 1812 4.3 23:42:21 10° NNW 23:45:36 26° W 23:46:07 25° WSW
APEX 3.3 23:41:31 10° NNW 23:46:09 70° WSW 23:46:09 70° WSW
Cosmos 2056 Rocket 4.2 23:46:46 34° ESE 23:46:55 34° ESE 23:51:31 10° NE
Gbstr 26 Del rocket 2.7 23:44:46 10° WNW 23:48:42 74° W 23:48:42 74° W
Meteor 1-11 Rocket 4.0 23:48:53 46° SSE 23:50:25 61° E 23:56:16 10° NNE
Cosmos 1536 3.7 23:51:17 38° E 23:51:17 38° E 23:54:48 10° NNE
Cosmos 1656 4.1 23:52:09 40° ESE 23:52:33 41° ESE 23:57:41 10° NE
CZ-4B R/B 3.8 23:54:27 16° ENE 23:54:48 16° ENE 23:57:02 10° NNE
